Location: Campavaglio
(41.1333°N, 9.2333°E)
Time: 22:49:21
(UTC+00:00)

STARLINK-45 - Pass Details

Date: 07 June 2020
Orbit: 434 x 435 km, 53.0° (Epoch: 05 July)

Event Time Altitude Azimuth Distance (km) Brightness Sun altitude
Exits shadow 02:07:40 34° 237° (WSW) 741 3.8 -15.4°
Maximum altitude 02:09:03 82° 322° (NW) 444 3.1 -15.3°
Drops below altitude 10° 02:12:32 10° 50° (NE) 1,548 7.3 -14.8°
Sets 02:14:40 0° 52° (NE) 2,422 8.7 -14.6°
